EW7639 Weather Reports


Display with metric or nautical units.
time (UTC)temp
F
wind
direction
speed
MPH
gust
MPH
rain 1hr
in
rain 24hr
in
rain mn
in
humidity
%
barometer
mb
20260502230013 50 190 0.0 0.0 0.00 0.00 0.00 16 1009.7
20260502224610 50 190 0.0 0.0 0.00 0.00 0.00 20 1009.6
20260502223048 50 190 0.0 0.0 0.00 0.00 0.00 20 1009.6
20260502221544 50 190 0.0 0.0 0.00 0.00 0.00 24 1009.6
20260502220024 50 190 0.0 0.0 0.00 0.00 0.00 27 1009.6
20260502214519 50 188 0.0 0.0 0.00 0.00 0.00 28 1009.7
20260502213059 50 192 0.0 2.0 0.00 0.00 0.00 30 1009.5
20260502211555 51 157 0.0 0.0 0.00 0.00 0.00 26 1009.5
20260502210038 51 143 0.0 0.0 0.00 0.00 0.00 28 1009.3
20260502204533 51 144 0.0 5.0 0.00 0.00 0.00 27 1009.6
20260502203029 51 138 0.0 5.0 0.00 0.00 0.00 29 1009.6
20260502201528 51 213 0.0 3.0 0.00 0.00 0.00 27 1009.7
20260502200020 51 209 0.0 2.0 0.00 0.00 0.00 24 1010.0
20260502194516 51 148 0.0 3.0 0.00 0.00 0.00 23 1010.0
20260502193011 51 213 0.0 3.0 0.00 0.00 0.00 20 1010.2
20260502191507 51 119 1.0 5.0 0.00 0.00 0.00 14 1010.2
20260502190046 51 227 0.0 4.0 0.00 0.00 0.00 2 1010.5
20260502184541 50 209 0.0 3.0 0.00 0.00 0.00 100 1010.6
20260502183019 50 156 0.0 6.0 0.00 0.00 0.00 7 1010.8
20260502181515 50 225 1.0 5.0 0.00 0.00 0.00 6 1011.0
20260502163034 51 251 0.0 5.0 0.00 0.00 0.00 46 1011.1
20260502161530 51 223 0.0 4.0 0.00 0.00 0.00 54 1011.3
20260502151545 55 201 1.0 6.0 0.00 0.00 0.00 66 1011.3
20260502123010 49 186 0.0 0.0 0.00 0.00 0.00 21 1012.2
20260502121509 49 186 0.0 0.0 0.00 0.00 0.00 11 1012.1
20260502114544 47 186 0.0 0.0 0.00 0.00 0.00 100 1011.6
20260502113018 45 186 0.0 0.0 0.00 0.00 0.00 100 1011.7
20260502111513 43 186 0.0 0.0 0.00 0.00 0.00 100 1011.8
20260502104553 41 186 0.0 0.0 0.00 0.00 0.00 100 1011.5
20260502103048 41 186 0.0 0.0 0.00 0.00 0.00 100 1011.4
20260502101549 41 186 0.0 0.0 0.00 0.00 0.00 100 1011.2
20260502091527 40 186 0.0 0.0 0.00 0.00 0.00 2 1011.3
20260502071522 41 130 0.0 0.0 0.00 0.00 0.00 23 1011.3
20260502070018 41 130 0.0 0.0 0.00 0.00 0.00 29 1011.1
20260502064531 42 130 0.0 0.0 0.00 0.00 0.00 30 1011.2
20260502063058 42 130 0.0 0.0 0.00 0.00 0.00 32 1011.1
20260502061555 43 130 0.0 0.0 0.00 0.00 0.00 32 1011.4
20260502060050 43 130 0.0 0.0 0.00 0.00 0.00 31 1011.5
20260502054554 43 130 0.0 0.0 0.00 0.00 0.00 30 1011.4
20260502053040 43 130 0.0 0.0 0.00 0.00 0.00 33 1011.6
20260502051539 43 130 0.0 0.0 0.00 0.00 0.00 39 1011.8
20260502050032 43 130 0.0 0.0 0.00 0.00 0.00 44 1011.8
20260502044535 44 130 0.0 0.0 0.00 0.00 0.00 50 1011.7
20260502043024 44 130 0.0 0.0 0.00 0.00 0.00 53 1011.8
20260502041507 45 130 0.0 0.0 0.00 0.00 0.00 58 1011.8
20260502040004 45 130 0.0 0.0 0.00 0.00 0.00 60 1011.9
20260502034558 46 130 0.0 0.0 0.00 0.00 0.00 63 1011.8
20260502033054 46 130 0.0 0.0 0.00 0.00 0.00 65 1011.8
20260502031559 46 130 0.0 0.0 0.00 0.00 0.00 67 1011.9
20260502030046 47 130 0.0 0.0 0.00 0.00 0.00 69 1011.9
20260502024544 47 130 0.0 0.0 0.00 0.00 0.00 71 1011.8
20260502023039 48 130 0.0 0.0 0.00 0.00 0.00 71 1011.7
20260502021514 49 130 0.0 0.0 0.00 0.00 0.00 71 1011.6
20260502020011 49 235 0.0 0.0 0.00 0.00 0.00 71 1011.7
20260502014553 49 252 0.0 0.0 0.00 0.00 0.00 71 1011.6
20260502013045 50 249 0.0 0.0 0.00 0.00 0.00 69 1011.6
20260502011524 51 215 1.0 8.0 0.00 0.00 0.00 69 1011.4
20260502010020 51 202 0.0 3.0 0.00 0.00 0.00 67 1011.3
20260502004606 52 228 0.0 4.0 0.00 0.00 0.00 65 1010.9
20260502003125 53 195 0.0 3.0 0.00 0.00 0.00 62 1010.8
20260502001554 53 239 0.0 0.0 0.00 0.00 0.00 55 1010.4
20260502000029 55 240 0.0 1.0 0.00 0.00 0.00 49 1010.1
20260501234507 56 230 0.0 5.0 0.00 0.00 0.00 48 1009.9
20260501233003 56 202 1.0 6.0 0.00 0.00 0.00 45 1009.6
20260501231546 57 225 0.0 4.0 0.00 0.00 0.00 46 1009.4